| time (UTC) | temp F | wind direction | speed MPH | gust MPH | rain 1hr in | rain 24hr in | rain mn in | humidity % | barometer mb |
| 20260901174530 | 68 | 269 | 2.0 | 7.0 | 0.00 | 0.08 | 0.03 | 67 | 1017.1 |
| 20260901173029 | 68 | 310 | 1.0 | 4.0 | 0.00 | 0.08 | 0.03 | 66 | 1016.9 |
| 20260901171529 | 69 | 115 | 0.0 | 3.0 | 0.00 | 0.08 | 0.03 | 65 | 1016.9 |
| 20260901170028 | 69 | 234 | 0.0 | 2.0 | 0.00 | 0.08 | 0.03 | 64 | 1016.8 |
| 20260901164527 | 70 | 198 | 1.0 | 5.0 | 0.00 | 0.08 | 0.03 | 64 | 1016.7 |
| 20260901163026 | 70 | 266 | 0.0 | 8.0 | 0.00 | 0.08 | 0.03 | 62 | 1016.8 |
| 20260901160058 | 71 | 250 | 3.0 | 8.0 | 0.00 | 0.08 | 0.03 | 58 | 1016.7 |
| 20260901154553 | 71 | 266 | 2.0 | 9.0 | 0.00 | 0.08 | 0.03 | 57 | 1016.7 |
| 20260901153053 | 72 | 187 | 2.0 | 7.0 | 0.00 | 0.08 | 0.03 | 59 | 1016.6 |
| 20260901151554 | 72 | 201 | 2.0 | 6.0 | 0.00 | 0.08 | 0.03 | 59 | 1016.6 |
| 20260901150051 | 72 | 255 | 2.0 | 12.0 | 0.00 | 0.08 | 0.03 | 60 | 1016.6 |
| 20260901144550 | 72 | 10 | 1.0 | 6.0 | 0.00 | 0.08 | 0.03 | 62 | 1016.7 |
| 20260901143050 | 72 | 292 | 1.0 | 7.0 | 0.00 | 0.08 | 0.03 | 61 | 1016.6 |
| 20260901141557 | 73 | 275 | 2.0 | 15.0 | 0.00 | 0.08 | 0.03 | 58 | 1016.6 |
| 20260901140051 | 74 | 215 | 2.0 | 11.0 | 0.00 | 0.08 | 0.03 | 57 | 1016.6 |
| 20260901134547 | 75 | 248 | 3.0 | 7.0 | 0.00 | 0.08 | 0.03 | 56 | 1016.7 |
| 20260901133047 | 75 | 284 | 1.0 | 11.0 | 0.00 | 0.08 | 0.03 | 59 | 1016.8 |
| 20260901131545 | 72 | 356 | 0.0 | 6.0 | 0.00 | 0.08 | 0.03 | 63 | 1016.9 |
| 20260901130045 | 76 | 195 | 2.0 | 10.0 | 0.00 | 0.08 | 0.03 | 56 | 1016.8 |
| 20260901124551 | 75 | 281 | 1.0 | 8.0 | 0.00 | 0.08 | 0.03 | 60 | 1016.9 |
| 20260901123043 | 74 | 308 | 2.0 | 6.0 | 0.00 | 0.08 | 0.03 | 61 | 1016.9 |
| 20260901121546 | 74 | 158 | 3.0 | 9.0 | 0.00 | 0.08 | 0.03 | 59 | 1017.0 |
| 20260901120037 | 74 | 211 | 3.0 | 15.0 | 0.00 | 0.08 | 0.03 | 60 | 1017.2 |
| 20260901114538 | 72 | 231 | 2.0 | 12.0 | 0.00 | 0.08 | 0.03 | 64 | 1017.1 |
| 20260901113041 | 71 | 249 | 3.0 | 12.0 | 0.00 | 0.08 | 0.03 | 65 | 1017.2 |
| 20260901111537 | 73 | 297 | 2.0 | 8.0 | 0.00 | 0.08 | 0.03 | 62 | 1017.1 |
| 20260901110039 | 71 | 262 | 2.0 | 8.0 | 0.00 | 0.08 | 0.03 | 67 | 1017.1 |
| 20260901104530 | 72 | 296 | 2.0 | 8.0 | 0.00 | 0.08 | 0.03 | 64 | 1017.1 |
| 20260901103028 | 71 | 311 | 4.0 | 10.0 | 0.00 | 0.08 | 0.03 | 66 | 1017.2 |
| 20260901101527 | 69 | 259 | 2.0 | 10.0 | 0.00 | 0.08 | 0.03 | 70 | 1017.2 |
| 20260901100022 | 68 | 263 | 3.0 | 7.0 | 0.00 | 0.08 | 0.03 | 73 | 1017.1 |
| 20260901094527 | 68 | 277 | 3.0 | 8.0 | 0.00 | 0.08 | 0.03 | 73 | 1017.1 |
| 20260901093020 | 68 | 296 | 1.0 | 7.0 | 0.00 | 0.08 | 0.03 | 75 | 1017.0 |
| 20260901091524 | 69 | 304 | 1.0 | 7.0 | 0.00 | 0.08 | 0.03 | 76 | 1016.8 |
| 20260901090014 | 67 | 242 | 1.0 | 9.0 | 0.00 | 0.08 | 0.03 | 80 | 1016.7 |
| 20260901084510 | 64 | 278 | 1.0 | 9.0 | 0.00 | 0.09 | 0.03 | 87 | 1016.7 |
| 20260901083006 | 63 | 313 | 1.0 | 7.0 | 0.00 | 0.09 | 0.03 | 90 | 1016.7 |
| 20260901081506 | 63 | 238 | 0.0 | 5.0 | 0.00 | 0.09 | 0.03 | 91 | 1016.5 |
| 20260901080048 | 63 | 263 | 2.0 | 7.0 | 0.00 | 0.09 | 0.03 | 90 | 1016.3 |
| 20260901074545 | 62 | 153 | 1.0 | 10.0 | 0.00 | 0.17 | 0.03 | 93 | 1016.2 |
| 20260901073041 | 62 | 252 | 1.0 | 4.0 | 0.00 | 0.17 | 0.03 | 94 | 1016.1 |
| 20260901071536 | 61 | 173 | 1.0 | 5.0 | 0.00 | 0.17 | 0.03 | 96 | 1016.0 |
| 20260901070036 | 60 | 298 | 0.0 | 3.0 | 0.00 | 0.17 | 0.03 | 96 | 1015.9 |
| 20260901064536 | 60 | 271 | 2.0 | 8.0 | 0.00 | 0.19 | 0.03 | 96 | 1015.8 |
| 20260901063026 | 60 | 177 | 1.0 | 4.0 | 0.00 | 0.19 | 0.03 | 97 | 1015.6 |
| 20260901061524 | 59 | 209 | 1.0 | 5.0 | 0.00 | 0.19 | 0.03 | 97 | 1015.5 |
| 20260901060022 | 59 | 249 | 0.0 | 3.0 | 0.00 | 0.19 | 0.03 | 97 | 1015.4 |
| 20260901054523 | 60 | 146 | 1.0 | 6.0 | 0.00 | 0.19 | 0.03 | 97 | 1015.2 |
| 20260901053022 | 59 | 239 | 0.0 | 3.0 | 0.00 | 0.19 | 0.03 | 97 | 1015.1 |
| 20260901051514 | 59 | 212 | 0.0 | 3.0 | 0.00 | 0.19 | 0.03 | 97 | 1015.0 |
| 20260901050011 | 58 | 246 | 0.0 | 3.0 | 0.00 | 0.19 | 0.03 | 97 | 1014.8 |
| 20260901044507 | 58 | 192 | 0.0 | 4.0 | 0.01 | 0.19 | 0.03 | 97 | 1014.7 |
| 20260901043116 | 58 | 179 | 0.0 | 2.0 | 0.01 | 0.19 | 0.03 | 97 | 1014.5 |
| 20260901041645 | 58 | 177 | 0.0 | 3.0 | 0.01 | 0.19 | 0.03 | 97 | 1014.3 |
| 20260901040053 | 58 | 284 | 0.0 | 6.0 | 0.01 | 0.19 | 0.03 | 97 | 1014.2 |
| 20260901034558 | 58 | 194 | 1.0 | 3.0 | 0.00 | 0.18 | 0.02 | 97 | 1014.0 |
| 20260901033057 | 58 | 172 | 0.0 | 6.0 | 0.00 | 0.18 | 0.02 | 96 | 1013.8 |
| 20260901031540 | 58 | 215 | 0.0 | 7.0 | 0.01 | 0.18 | 0.02 | 96 | 1013.8 |
| 20260901030039 | 58 | 175 | 0.0 | 2.0 | 0.02 | 0.18 | 0.02 | 96 | 1013.7 |
| 20260901024546 | 58 | 225 | 0.0 | 3.0 | 0.02 | 0.18 | 0.02 | 96 | 1013.7 |
| 20260901023037 | 58 | 240 | 2.0 | 9.0 | 0.02 | 0.18 | 0.02 | 96 | 1013.6 |
| 20260901021534 | 57 | 188 | 0.0 | 5.0 | 0.00 | 0.17 | 0.01 | 96 | 1013.5 |
| 20260901020034 | 57 | 170 | 3.0 | 10.0 | 0.00 | 0.17 | 0.01 | 96 | 1013.5 |
| 20260901014533 | 57 | 200 | 1.0 | 4.0 | 0.01 | 0.17 | 0.01 | 96 | 1013.4 |
| 20260901013034 | 57 | 213 | 3.0 | 9.0 | 0.01 | 0.17 | 0.01 | 96 | 1013.3 |
| 20260901011536 | 57 | 183 | 2.0 | 8.0 | 0.01 | 0.17 | 0.01 | 96 | 1013.3 |
| 20260901010039 | 57 | 209 | 1.0 | 6.0 | 0.01 | 0.17 | 0.01 | 96 | 1013.3 |
| 20260901004530 | 57 | 157 | 0.0 | 8.0 | 0.00 | 0.16 | 0.00 | 96 | 1013.5 |
| 20260901003028 | 57 | 182 | 0.0 | 6.0 | 0.00 | 0.16 | 0.00 | 96 | 1013.5 |
| 20260901001531 | 57 | 150 | 1.0 | 7.0 | 0.00 | 0.16 | 0.00 | 96 | 1013.4 |
| 20260901000026 | 57 | 204 | 0.0 | 9.0 | 0.00 | 0.16 | 0.00 | 95 | 1013.4 |
| 20260831234535 | 57 | 197 | 2.0 | 6.0 | 0.00 | 0.16 | 0.00 | 95 | 1013.3 |
| 20260831233022 | 56 | 169 | 1.0 | 6.0 | 0.00 | 0.16 | 0.00 | 95 | 1013.2 |
| 20260831231521 | 57 | 216 | 1.0 | 4.0 | 0.00 | 0.16 | 0.00 | 95 | 1013.3 |
| 20260831230024 | 57 | 200 | 0.0 | 4.0 | 0.00 | 0.16 | 0.00 | 95 | 1013.3 |
| 20260831224517 | 57 | 173 | 0.0 | 4.0 | 0.00 | 0.16 | 0.00 | 95 | 1013.2 |
| 20260831223015 | 57 | 226 | 1.0 | 7.0 | 0.00 | 0.16 | 0.00 | 94 | 1013.1 |
| 20260831221522 | 58 | 184 | 1.0 | 8.0 | 0.00 | 0.16 | 0.00 | 94 | 1013.0 |
| 20260831220019 | 58 | 192 | 1.0 | 4.0 | 0.00 | 0.16 | 0.00 | 94 | 1012.9 |
| 20260831214509 | 58 | 176 | 0.0 | 3.0 | 0.00 | 0.16 | 0.16 | 94 | 1012.9 |
| 20260831213025 | 59 | 144 | 0.0 | 7.0 | 0.00 | 0.16 | 0.16 | 94 | 1012.8 |
| 20260831211506 | 59 | 199 | 0.0 | 4.0 | 0.00 | 0.16 | 0.16 | 94 | 1012.6 |
| 20260831210005 | 59 | 177 | 1.0 | 7.0 | 0.00 | 0.16 | 0.16 | 93 | 1012.6 |
| 20260831204504 | 59 | 180 | 1.0 | 9.0 | 0.02 | 0.16 | 0.16 | 93 | 1012.6 |
| 20260831203005 | 60 | 194 | 1.0 | 6.0 | 0.03 | 0.16 | 0.16 | 92 | 1012.4 |
| 20260831201503 | 60 | 186 | 0.0 | 6.0 | 0.03 | 0.16 | 0.16 | 91 | 1012.1 |
| 20260831200001 | 60 | 154 | 0.0 | 2.0 | 0.03 | 0.16 | 0.16 | 90 | 1011.9 |
| 20260831194501 | 60 | 204 | 1.0 | 9.0 | 0.02 | 0.14 | 0.14 | 88 | 1011.9 |
| 20260831193101 | 61 | 163 | 1.0 | 4.0 | 0.00 | 0.13 | 0.13 | 87 | 1012.1 |
| 20260831191600 | 61 | 198 | 0.0 | 2.0 | 0.01 | 0.13 | 0.13 | 86 | 1011.8 |
| 20260831190136 | 61 | 195 | 0.0 | 2.0 | 0.01 | 0.13 | 0.13 | 85 | 1011.5 |
| 20260831184558 | 62 | 267 | 0.0 | 3.0 | 0.01 | 0.13 | 0.13 | 83 | 1011.2 |
| 20260831183059 | 63 | 184 | 0.0 | 2.0 | 0.02 | 0.13 | 0.13 | 82 | 1011.1 |
| 20260831181601 | 64 | 228 | 1.0 | 8.0 | 0.01 | 0.12 | 0.12 | 78 | 1011.3 |
| 20260831180057 | 66 | 317 | 1.0 | 11.0 | 0.01 | 0.12 | 0.12 | 77 | 1011.5 |